Time,TemperatureF,DewpointF,PressureIn,WindDirection,WindDirectionDegrees,WindSpeedMPH,WindSpeedGustMPH,Humidity,HourlyPrecipIn,Conditions,Clouds,dailyrainin,SoftwareType,DateUTC
2013-05-03 00:05:00,51.9,45.6,30.15,WSW,244,5.0,11.0,79,0.00,,---,0.00,VWS V14.00,2013-05-02 23:05:00,
2013-05-03 00:10:00,51.9,45.6,30.15,WSW,253,2.0,5.0,79,0.00,,---,0.00,VWS V14.00,2013-05-02 23:10:00,
2013-05-03 00:15:00,51.9,45.6,30.15,WSW,237,2.0,10.0,79,0.00,,---,0.00,VWS V14.00,2013-05-02 23:15:00,
2013-05-03 00:21:00,52.0,45.7,30.15,WSW,254,6.0,11.0,79,0.00,,---,0.00,VWS V14.00,2013-05-02 23:21:00,
2013-05-03 00:27:00,52.0,45.7,30.15,West,277,11.0,11.0,79,0.00,,---,0.00,VWS V14.00,2013-05-02 23:27:00,
2013-05-03 00:32:00,51.9,45.6,30.15,West,262,3.0,9.0,79,0.00,,---,0.00,VWS V14.00,2013-05-02 23:32:00,
2013-05-03 00:38:00,51.8,45.8,30.14,West,271,9.0,11.0,80,0.00,,---,0.00,VWS V14.00,2013-05-02 23:38:00,
2013-05-03 00:43:00,51.8,45.8,30.14,WSW,249,4.0,11.0,80,0.00,,---,0.00,VWS V14.00,2013-05-02 23:43:00,
2013-05-03 00:48:00,51.6,45.6,30.14,West,261,13.0,13.0,80,0.00,,---,0.00,VWS V14.00,2013-05-02 23:48:00,
2013-05-03 00:53:00,51.5,45.9,30.14,West,275,9.0,9.0,81,0.00,,---,0.00,VWS V14.00,2013-05-02 23:53:00,
2013-05-03 00:58:00,51.5,45.9,30.13,SSW,212,10.0,10.0,81,0.00,,---,0.00,VWS V14.00,2013-05-02 23:58:00,
2013-05-03 01:03:00,51.4,45.8,30.14,SW,232,5.0,5.0,81,0.00,,---,0.00,VWS V14.00,2013-05-03 00:03:00,
2013-05-03 01:09:00,51.3,45.7,30.14,West,264,3.0,5.0,81,0.00,,---,0.00,VWS V14.00,2013-05-03 00:09:00,
2013-05-03 01:14:00,51.3,45.7,30.14,WSW,253,5.0,13.0,81,0.00,,---,0.00,VWS V14.00,2013-05-03 00:14:00,
2013-05-03 01:19:00,51.3,45.7,30.14,West,267,4.0,10.0,81,0.00,,---,0.00,VWS V14.00,2013-05-03 00:19:00,
2013-05-03 01:24:00,51.2,45.9,30.14,WSW,258,8.0,10.0,82,0.00,,---,0.00,VWS V14.00,2013-05-03 00:24:00,
2013-05-03 01:30:00,51.2,45.9,30.13,West,264,6.0,9.0,82,0.00,,---,0.00,VWS V14.00,2013-05-03 00:30:00,
2013-05-03 01:35:00,51.0,45.7,30.13,West,259,3.0,7.0,82,0.00,,---,0.00,VWS V14.00,2013-05-03 00:35:00,
2013-05-03 01:40:00,50.9,45.6,30.13,SW,229,5.0,7.0,82,0.00,,---,0.00,VWS V14.00,2013-05-03 00:40:00,
2013-05-03 01:46:00,50.8,45.5,30.12,WSW,253,4.0,5.0,82,0.00,,---,0.00,VWS V14.00,2013-05-03 00:46:00,
2013-05-03 01:51:00,50.8,45.5,30.12,WSW,251,2.0,6.0,82,0.00,,---,0.00,VWS V14.00,2013-05-03 00:51:00,
2013-05-03 01:56:00,50.7,45.7,30.12,West,262,5.0,6.0,83,0.00,,---,0.00,VWS V14.00,2013-05-03 00:56:00,
2013-05-03 02:01:00,50.6,45.6,30.12,WSW,244,0.0,4.0,83,0.00,,---,0.00,VWS V14.00,2013-05-03 01:01:00,
2013-05-03 02:07:00,50.5,45.5,30.11,SW,215,0.0,3.0,83,0.00,,---,0.00,VWS V14.00,2013-05-03 01:07:00,
2013-05-03 02:12:00,50.4,45.4,30.11,SW,230,4.0,4.0,83,0.00,,---,0.00,VWS V14.00,2013-05-03 01:12:00,
2013-05-03 02:18:00,50.3,45.3,30.11,SW,227,11.0,11.0,83,0.00,,---,0.00,VWS V14.00,2013-05-03 01:18:00,
2013-05-03 02:23:00,50.4,45.4,30.11,WSW,244,2.0,8.0,83,0.00,,---,0.00,VWS V14.00,2013-05-03 01:23:00,
2013-05-03 02:28:00,50.3,45.3,30.11,WSW,238,4.0,10.0,83,0.00,,---,0.00,VWS V14.00,2013-05-03 01:28:00,
2013-05-03 02:33:00,50.3,45.3,30.11,SW,222,6.0,6.0,83,0.00,,---,0.00,VWS V14.00,2013-05-03 01:33:00,
2013-05-03 02:39:00,50.3,45.3,30.10,West,259,1.0,3.0,83,0.00,,---,0.00,VWS V14.00,2013-05-03 01:39:00,
2013-05-03 02:44:00,50.3,45.3,30.10,West,262,3.0,5.0,83,0.00,,---,0.00,VWS V14.00,2013-05-03 01:44:00,
2013-05-03 02:49:00,50.2,45.6,30.10,WSW,256,11.0,11.0,84,0.00,,---,0.00,VWS V14.00,2013-05-03 01:49:00,
2013-05-03 02:54:00,50.2,45.6,30.10,SW,220,5.0,5.0,84,0.00,,---,0.00,VWS V14.00,2013-05-03 01:54:00,
2013-05-03 02:59:00,50.1,45.5,30.09,SW,231,7.0,7.0,84,0.00,,---,0.00,VWS V14.00,2013-05-03 01:59:00,
2013-05-03 03:05:00,50.1,45.5,30.09,SW,229,0.0,4.0,84,0.00,,---,0.00,VWS V14.00,2013-05-03 02:05:00,
2013-05-03 03:10:00,50.0,45.4,30.09,SSW,198,7.0,7.0,84,0.00,,---,0.00,VWS V14.00,2013-05-03 02:10:00,
2013-05-03 03:16:00,50.1,45.5,30.09,WSW,250,0.0,2.0,84,0.00,,---,0.00,VWS V14.00,2013-05-03 02:16:00,
2013-05-03 03:21:00,50.0,45.4,30.09,WSW,242,3.0,3.0,84,0.00,,---,0.00,VWS V14.00,2013-05-03 02:21:00,
2013-05-03 03:26:00,50.0,45.4,30.09,West,259,9.0,12.0,84,0.00,,---,0.00,VWS V14.00,2013-05-03 02:26:00,
2013-05-03 03:31:00,50.0,45.4,30.08,West,261,4.0,7.0,84,0.00,,---,0.00,VWS V14.00,2013-05-03 02:31:00,
2013-05-03 03:37:00,50.0,45.4,30.08,West,267,5.0,6.0,84,0.00,,---,0.00,VWS V14.00,2013-05-03 02:37:00,
2013-05-03 03:42:00,50.0,45.7,30.08,SW,229,6.0,10.0,85,0.00,,---,0.00,VWS V14.00,2013-05-03 02:42:00,
2013-05-03 03:47:00,50.0,45.4,30.08,WSW,250,6.0,10.0,84,0.00,,---,0.00,VWS V14.00,2013-05-03 02:47:00,
2013-05-03 03:53:00,50.0,45.7,30.08,SW,227,7.0,9.0,85,0.00,,---,0.00,VWS V14.00,2013-05-03 02:53:00,
2013-05-03 03:58:00,49.9,45.6,30.08,SW,227,10.0,11.0,85,0.00,,---,0.00,VWS V14.00,2013-05-03 02:58:00,
2013-05-03 04:03:00,49.9,45.6,30.08,West,262,5.0,6.0,85,0.00,,---,0.00,VWS V14.00,2013-05-03 03:03:00,
2013-05-03 04:08:00,49.8,45.5,30.08,WSW,246,5.0,6.0,85,0.00,,---,0.00,VWS V14.00,2013-05-03 03:08:00,
2013-05-03 04:13:00,49.7,45.4,30.07,West,265,6.0,10.0,85,0.00,,---,0.00,VWS V14.00,2013-05-03 03:13:00,
2013-05-03 04:18:00,49.7,45.4,30.07,WSW,241,6.0,7.0,85,0.00,,---,0.00,VWS V14.00,2013-05-03 03:18:00,
2013-05-03 04:23:00,49.7,45.4,30.07,SW,232,1.0,9.0,85,0.00,,---,0.00,VWS V14.00,2013-05-03 03:23:00,
2013-05-03 04:28:00,49.7,45.7,30.07,WSW,252,0.0,3.0,86,0.00,,---,0.00,VWS V14.00,2013-05-03 03:28:00,
2013-05-03 04:33:00,49.7,45.7,30.07,SW,223,1.0,3.0,86,0.00,,---,0.00,VWS V14.00,2013-05-03 03:33:00,
2013-05-03 04:38:00,49.7,45.7,30.07,WSW,239,3.0,6.0,86,0.00,,---,0.00,VWS V14.00,2013-05-03 03:38:00,
2013-05-03 04:43:00,49.7,45.7,30.07,SW,223,8.0,11.0,86,0.00,,---,0.00,VWS V14.00,2013-05-03 03:43:00,
2013-05-03 04:48:00,49.7,45.7,30.07,SW,229,5.0,6.0,86,0.00,,---,0.00,VWS V14.00,2013-05-03 03:48:00,
2013-05-03 04:54:00,49.7,45.7,30.07,WSW,246,6.0,6.0,86,0.00,,---,0.00,VWS V14.00,2013-05-03 03:54:00,
2013-05-03 04:59:00,49.6,45.6,30.07,WSW,248,3.0,4.0,86,0.00,,---,0.00,VWS V14.00,2013-05-03 03:59:00,
2013-05-03 05:01:00,49.6,45.9,30.06,SW,230,10.0,10.0,87,0.00,,---,0.00,VWS V14.00,2013-05-03 04:01:00,
2013-05-03 05:02:00,49.6,45.6,30.07,WSW,245,5.0,7.0,86,0.00,,---,0.00,VWS V14.00,2013-05-03 04:02:00,
2013-05-03 05:03:00,49.6,45.9,30.06,West,265,16.0,20.0,87,0.00,,---,0.00,VWS V14.00,2013-05-03 04:03:00,
2013-05-03 05:05:00,49.5,45.8,30.07,WSW,243,0.0,0.0,87,0.00,,---,0.00,VWS V14.00,2013-05-03 04:05:00,
2013-05-03 05:08:00,49.6,45.9,30.06,WSW,242,4.0,5.0,87,0.00,,---,0.00,VWS V14.00,2013-05-03 04:08:00,
2013-05-03 05:13:00,49.6,45.9,30.06,SW,236,6.0,9.0,87,0.00,,---,0.00,VWS V14.00,2013-05-03 04:13:00,
2013-05-03 05:18:00,49.6,45.9,30.06,SW,221,6.0,6.0,87,0.00,,---,0.00,VWS V14.00,2013-05-03 04:18:00,
2013-05-03 05:23:00,49.6,45.9,30.06,West,271,4.0,9.0,87,0.00,,---,0.00,VWS V14.00,2013-05-03 04:23:00,
2013-05-03 05:28:00,49.7,46.0,30.06,WSW,249,7.0,13.0,87,0.00,,---,0.00,VWS V14.00,2013-05-03 04:28:00,
2013-05-03 05:33:00,49.7,46.0,30.06,SSW,211,2.0,11.0,87,0.00,,---,0.00,VWS V14.00,2013-05-03 04:33:00,
2013-05-03 05:38:00,49.7,46.0,30.05,WSW,238,6.0,15.0,87,0.00,,---,0.00,VWS V14.00,2013-05-03 04:38:00,
2013-05-03 05:43:00,49.6,45.9,30.05,WSW,247,6.0,11.0,87,0.00,,---,0.00,VWS V14.00,2013-05-03 04:43:00,
2013-05-03 05:48:00,49.6,45.9,30.05,WNW,290,5.0,10.0,87,0.00,,---,0.00,VWS V14.00,2013-05-03 04:48:00,
2013-05-03 05:53:00,49.6,45.9,30.05,SSW,200,7.0,7.0,87,0.00,,---,0.00,VWS V14.00,2013-05-03 04:53:00,
2013-05-03 05:59:00,49.5,45.8,30.05,SSW,211,9.0,9.0,87,0.00,,---,0.00,VWS V14.00,2013-05-03 04:59:00,
2013-05-03 06:05:00,49.5,46.1,30.05,SSW,206,4.0,5.0,88,0.00,,---,0.00,VWS V14.00,2013-05-03 05:05:00,
2013-05-03 06:10:00,49.4,46.0,30.05,SSW,207,9.0,12.0,88,0.00,,---,0.00,VWS V14.00,2013-05-03 05:10:00,
2013-05-03 06:16:00,49.4,46.0,30.05,SW,214,5.0,8.0,88,0.00,,---,0.00,VWS V14.00,2013-05-03 05:16:00,
2013-05-03 06:21:00,49.4,46.0,30.05,WSW,248,1.0,7.0,88,0.00,,---,0.00,VWS V14.00,2013-05-03 05:21:00,
2013-05-03 06:27:00,49.4,46.0,30.05,SSW,212,7.0,7.0,88,0.00,,---,0.00,VWS V14.00,2013-05-03 05:27:00,
2013-05-03 06:32:00,49.4,46.0,30.05,WSW,254,4.0,4.0,88,0.00,,---,0.00,VWS V14.00,2013-05-03 05:32:00,
2013-05-03 06:37:00,49.4,46.0,30.05,SW,219,4.0,5.0,88,0.00,,---,0.00,VWS V14.00,2013-05-03 05:37:00,
2013-05-03 06:42:00,49.5,46.1,30.05,SW,217,6.0,12.0,88,0.00,,---,0.00,VWS V14.00,2013-05-03 05:42:00,
2013-05-03 06:48:00,49.6,46.2,30.05,SW,217,2.0,10.0,88,0.00,,---,0.00,VWS V14.00,2013-05-03 05:48:00,
2013-05-03 06:54:00,49.7,46.3,30.05,WSW,243,1.0,4.0,88,0.00,,---,0.00,VWS V14.00,2013-05-03 05:54:00,
2013-05-03 06:59:00,49.9,46.5,30.05,SW,231,3.0,3.0,88,0.00,,---,0.00,VWS V14.00,2013-05-03 05:59:00,
2013-05-03 07:04:00,49.9,46.5,30.05,SW,226,0.0,6.0,88,0.00,,---,0.00,VWS V14.00,2013-05-03 06:04:00,
2013-05-03 07:09:00,50.0,46.6,30.05,West,261,4.0,7.0,88,0.00,,---,0.00,VWS V14.00,2013-05-03 06:09:00,
2013-05-03 07:14:00,50.1,46.7,30.05,WSW,257,6.0,6.0,88,0.00,,---,0.00,VWS V14.00,2013-05-03 06:14:00,
2013-05-03 07:20:00,50.2,46.5,30.04,WSW,255,10.0,10.0,87,0.00,,---,0.00,VWS V14.00,2013-05-03 06:20:00,
2013-05-03 07:25:00,50.3,46.6,30.04,West,269,7.0,7.0,87,0.00,,---,0.00,VWS V14.00,2013-05-03 06:25:00,
2013-05-03 07:30:00,50.5,46.8,30.05,WSW,246,0.0,4.0,87,0.00,,---,0.00,VWS V14.00,2013-05-03 06:30:00,
2013-05-03 07:35:00,50.7,46.7,30.05,West,264,3.0,8.0,86,0.00,,---,0.00,VWS V14.00,2013-05-03 06:35:00,
2013-05-03 07:40:00,50.8,46.8,30.05,SW,223,6.0,7.0,86,0.00,,---,0.00,VWS V14.00,2013-05-03 06:40:00,
2013-05-03 07:46:00,51.0,46.7,30.04,SW,221,5.0,9.0,85,0.00,,---,0.00,VWS V14.00,2013-05-03 06:46:00,
2013-05-03 07:51:00,51.0,46.7,30.04,WSW,250,2.0,5.0,85,0.00,,---,0.00,VWS V14.00,2013-05-03 06:51:00,
2013-05-03 07:56:00,51.1,46.8,30.04,SSW,212,3.0,6.0,85,0.00,,---,0.00,VWS V14.00,2013-05-03 06:56:00,
2013-05-03 08:01:00,51.2,46.8,30.04,West,265,7.0,11.0,85,0.00,,---,0.00,VWS V14.00,2013-05-03 07:01:00,
2013-05-03 08:06:00,51.4,47.0,30.04,WSW,254,7.0,10.0,85,0.00,,---,0.00,VWS V14.00,2013-05-03 07:06:00,
2013-05-03 08:11:00,51.7,47.0,30.04,SSW,211,5.0,5.0,84,0.00,,---,0.00,VWS V14.00,2013-05-03 07:11:00,
2013-05-03 08:16:00,52.0,47.3,30.04,WSW,238,0.0,11.0,84,0.00,,---,0.00,VWS V14.00,2013-05-03 07:16:00,
2013-05-03 08:21:00,52.4,47.4,30.04,SW,226,6.0,6.0,83,0.00,,---,0.00,VWS V14.00,2013-05-03 07:21:00,
2013-05-03 08:27:00,52.9,47.6,30.04,SW,234,10.0,10.0,82,0.00,,---,0.00,VWS V14.00,2013-05-03 07:27:00,
2013-05-03 08:33:00,52.9,47.2,30.04,WSW,250,6.0,11.0,81,0.00,,---,0.00,VWS V14.00,2013-05-03 07:33:00,
2013-05-03 08:39:00,53.0,47.3,30.04,West,266,10.0,12.0,81,0.00,,---,0.00,VWS V14.00,2013-05-03 07:39:00,
2013-05-03 08:44:00,52.8,47.1,30.04,SW,236,5.0,12.0,81,0.00,,---,0.00,VWS V14.00,2013-05-03 07:44:00,
2013-05-03 08:49:00,52.6,46.9,30.04,WSW,238,13.0,13.0,81,0.00,,---,0.00,VWS V14.00,2013-05-03 07:49:00,
2013-05-03 08:54:00,52.5,46.8,30.04,WSW,251,6.0,12.0,81,0.00,,---,0.00,VWS V14.00,2013-05-03 07:54:00,
2013-05-03 08:59:00,52.5,46.8,30.04,SW,228,11.0,17.0,81,0.00,,---,0.00,VWS V14.00,2013-05-03 07:59:00,
2013-05-03 09:05:00,52.8,47.5,30.04,WSW,250,9.0,9.0,82,0.00,,---,0.00,VWS V14.00,2013-05-03 08:05:00,
2013-05-03 09:10:00,53.0,47.3,30.03,WSW,252,3.0,6.0,81,0.00,,---,0.00,VWS V14.00,2013-05-03 08:10:00,
2013-05-03 09:15:00,53.2,47.5,30.03,WSW,256,12.0,15.0,81,0.00,,---,0.00,VWS V14.00,2013-05-03 08:15:00,
2013-05-03 09:20:00,53.3,47.3,30.03,SW,234,4.0,7.0,80,0.00,,---,0.00,VWS V14.00,2013-05-03 08:20:00,
2013-05-03 09:25:00,53.3,47.0,30.03,WSW,242,10.0,14.0,79,0.00,,---,0.00,VWS V14.00,2013-05-03 08:25:00,
2013-05-03 09:30:00,53.5,47.2,30.03,West,272,5.0,7.0,79,0.00,,---,0.00,VWS V14.00,2013-05-03 08:30:00,
2013-05-03 09:35:00,54.1,47.4,30.03,West,259,13.0,17.0,78,0.00,,---,0.00,VWS V14.00,2013-05-03 08:35:00,
2013-05-03 09:40:00,54.1,47.1,30.03,West,265,10.0,18.0,77,0.00,,---,0.00,VWS V14.00,2013-05-03 08:40:00,
2013-05-03 09:45:00,54.4,47.3,30.03,West,271,15.0,15.0,77,0.00,,---,0.00,VWS V14.00,2013-05-03 08:45:00,
2013-05-03 09:50:00,54.5,47.5,30.03,SW,227,10.0,17.0,77,0.00,,---,0.00,VWS V14.00,2013-05-03 08:50:00,
2013-05-03 09:55:00,54.6,47.5,30.03,West,262,11.0,16.0,77,0.00,,---,0.00,VWS V14.00,2013-05-03 08:55:00,
2013-05-03 10:01:00,54.4,47.7,30.03,WSW,244,5.0,17.0,78,0.00,,---,0.00,VWS V14.00,2013-05-03 09:01:00,
2013-05-03 10:06:00,54.2,47.2,30.03,SW,232,14.0,18.0,77,0.00,,---,0.00,VWS V14.00,2013-05-03 09:06:00,
2013-05-03 10:11:00,54.0,47.3,30.03,West,259,11.0,16.0,78,0.00,,---,0.00,VWS V14.00,2013-05-03 09:11:00,
2013-05-03 10:16:00,54.0,47.3,30.03,WSW,249,5.0,12.0,78,0.00,,---,0.00,VWS V14.00,2013-05-03 09:16:00,
2013-05-03 10:21:00,54.4,47.7,30.03,WSW,246,5.0,5.0,78,0.00,,---,0.00,VWS V14.00,2013-05-03 09:21:00,
2013-05-03 10:26:00,54.7,48.0,30.02,SW,219,1.0,7.0,78,0.00,,---,0.00,VWS V14.00,2013-05-03 09:26:00,
2013-05-03 10:31:00,54.7,47.6,30.03,South,183,3.0,10.0,77,0.00,,---,0.00,VWS V14.00,2013-05-03 09:31:00,
2013-05-03 10:36:00,54.8,47.7,30.02,WSW,241,3.0,4.0,77,0.00,,---,0.00,VWS V14.00,2013-05-03 09:36:00,
2013-05-03 10:41:00,55.0,47.9,30.02,SW,230,4.0,6.0,77,0.00,,---,0.00,VWS V14.00,2013-05-03 09:41:00,
2013-05-03 10:46:00,54.8,47.7,30.02,SW,219,3.0,6.0,77,0.00,,---,0.00,VWS V14.00,2013-05-03 09:46:00,
2013-05-03 10:51:00,54.4,47.0,30.02,SW,229,5.0,9.0,76,0.00,,---,0.00,VWS V14.00,2013-05-03 09:51:00,
2013-05-03 10:56:00,54.3,47.2,30.02,SW,214,1.0,10.0,77,0.00,,---,0.00,VWS V14.00,2013-05-03 09:56:00,
2013-05-03 11:01:00,54.3,47.2,30.02,SW,229,6.0,6.0,77,0.00,,---,0.00,VWS V14.00,2013-05-03 10:01:00,
2013-05-03 11:06:00,54.4,47.7,30.01,WSW,256,4.0,4.0,78,0.00,,---,0.00,VWS V14.00,2013-05-03 10:06:00,
2013-05-03 11:11:00,54.5,47.5,30.01,SW,236,4.0,16.0,77,0.00,,---,0.00,VWS V14.00,2013-05-03 10:11:00,
2013-05-03 11:17:00,54.7,47.6,30.01,SW,223,6.0,19.0,77,0.00,,---,0.00,VWS V14.00,2013-05-03 10:17:00,
2013-05-03 11:22:00,54.7,47.6,30.01,West,263,9.0,12.0,77,0.00,,---,0.00,VWS V14.00,2013-05-03 10:22:00,
2013-05-03 11:27:00,54.5,47.1,30.01,WSW,240,12.0,13.0,76,0.00,,---,0.00,VWS V14.00,2013-05-03 10:27:00,
2013-05-03 11:33:00,54.4,47.0,30.01,SW,227,3.0,6.0,76,0.00,,---,0.00,VWS V14.00,2013-05-03 10:33:00,
2013-05-03 11:39:00,54.4,47.0,30.01,WSW,258,0.0,3.0,76,0.00,,---,0.00,VWS V14.00,2013-05-03 10:39:00,
2013-05-03 11:44:00,54.7,46.9,30.01,WSW,247,4.0,12.0,75,0.00,,---,0.00,VWS V14.00,2013-05-03 10:44:00,
2013-05-03 11:49:00,54.8,47.4,30.01,WSW,253,5.0,14.0,76,0.00,,---,0.00,VWS V14.00,2013-05-03 10:49:00,
2013-05-03 11:55:00,54.7,46.9,30.01,West,261,4.0,12.0,75,0.00,,---,0.00,VWS V14.00,2013-05-03 10:55:00,
2013-05-03 12:00:00,54.8,47.0,30.01,West,275,9.0,13.0,75,0.00,,---,0.00,VWS V14.00,2013-05-03 11:00:00,
2013-05-03 12:06:00,54.7,47.3,30.00,WSW,254,13.0,13.0,76,0.00,,---,0.00,VWS V14.00,2013-05-03 11:06:00,
2013-05-03 12:12:00,54.8,47.0,30.00,WSW,243,7.0,10.0,75,0.00,,---,0.00,VWS V14.00,2013-05-03 11:12:00,
2013-05-03 12:17:00,54.9,47.1,30.00,SW,232,13.0,18.0,75,0.00,,---,0.00,VWS V14.00,2013-05-03 11:17:00,
2013-05-03 12:22:00,54.6,47.2,30.00,West,278,11.0,15.0,76,0.00,,---,0.00,VWS V14.00,2013-05-03 11:22:00,
2013-05-03 12:28:00,54.5,47.5,30.00,WSW,250,13.0,19.0,77,0.00,,---,0.00,VWS V14.00,2013-05-03 11:28:00,
2013-05-03 12:33:00,54.9,47.8,29.99,SW,224,3.0,10.0,77,0.00,,---,0.00,VWS V14.00,2013-05-03 11:33:00,
2013-05-03 12:38:00,55.4,48.0,29.99,WSW,254,10.0,12.0,76,0.00,,---,0.00,VWS V14.00,2013-05-03 11:38:00,
2013-05-03 12:43:00,55.8,48.0,29.99,West,263,6.0,13.0,75,0.00,,---,0.00,VWS V14.00,2013-05-03 11:43:00,
2013-05-03 12:48:00,55.9,48.1,29.99,WSW,244,5.0,13.0,75,0.00,,---,0.00,VWS V14.00,2013-05-03 11:48:00,
2013-05-03 12:53:00,55.9,48.1,29.99,WSW,252,6.0,10.0,75,0.00,,---,0.00,VWS V14.00,2013-05-03 11:53:00,
2013-05-03 12:58:00,56.0,48.2,29.99,WSW,243,7.0,18.0,75,0.00,,---,0.00,VWS V14.00,2013-05-03 11:58:00,
2013-05-03 13:04:00,55.9,48.1,29.98,WSW,246,7.0,12.0,75,0.00,,---,0.00,VWS V14.00,2013-05-03 12:04:00,
2013-05-03 13:09:00,55.7,47.9,29.99,West,265,15.0,16.0,75,0.00,,---,0.00,VWS V14.00,2013-05-03 12:09:00,
2013-05-03 13:14:00,55.9,47.7,29.98,West,263,13.0,14.0,74,0.00,,---,0.00,VWS V14.00,2013-05-03 12:14:00,
2013-05-03 13:19:00,56.1,47.9,29.98,SW,236,7.0,16.0,74,0.00,,---,0.00,VWS V14.00,2013-05-03 12:19:00,
2013-05-03 13:24:00,56.3,48.1,29.98,WSW,250,14.0,15.0,74,0.00,,---,0.00,VWS V14.00,2013-05-03 12:24:00,
2013-05-03 13:29:00,56.6,48.4,29.98,WSW,238,9.0,15.0,74,0.00,,---,0.00,VWS V14.00,2013-05-03 12:29:00,
2013-05-03 13:34:00,56.8,48.2,29.98,SW,219,4.0,16.0,73,0.00,,---,0.00,VWS V14.00,2013-05-03 12:34:00,
2013-05-03 13:39:00,57.2,48.6,29.97,NW,313,6.0,12.0,73,0.00,,---,0.00,VWS V14.00,2013-05-03 12:39:00,
2013-05-03 13:45:00,57.7,49.1,29.97,West,272,7.0,17.0,73,0.00,,---,0.00,VWS V14.00,2013-05-03 12:45:00,
2013-05-03 13:50:00,57.4,48.5,29.97,West,269,11.0,14.0,72,0.00,,---,0.00,VWS V14.00,2013-05-03 12:50:00,
2013-05-03 13:55:00,56.7,48.2,29.97,WSW,251,20.0,20.0,73,0.00,,---,0.00,VWS V14.00,2013-05-03 12:55:00,
2013-05-03 14:00:00,56.1,47.6,29.97,SW,234,17.0,27.0,73,0.00,,---,0.00,VWS V14.00,2013-05-03 13:00:00,
2013-05-03 14:05:00,55.5,48.1,29.98,WNW,290,29.0,29.0,76,0.00,,---,0.00,VWS V14.00,2013-05-03 13:05:00,
2013-05-03 14:11:00,53.0,48.3,29.98,West,280,15.0,21.0,84,0.00,,---,0.00,VWS V14.00,2013-05-03 13:11:00,
2013-05-03 14:16:00,52.2,48.8,29.98,WNW,283,13.0,17.0,88,0.01,,---,0.01,VWS V14.00,2013-05-03 13:16:00,
2013-05-03 14:21:00,52.0,48.9,29.97,WSW,256,5.0,13.0,89,0.01,,---,0.01,VWS V14.00,2013-05-03 13:21:00,
2013-05-03 14:26:00,52.1,49.3,29.96,WSW,247,12.0,18.0,90,0.01,,---,0.01,VWS V14.00,2013-05-03 13:26:00,
2013-05-03 14:32:00,52.8,50.0,29.96,West,273,6.0,11.0,90,0.01,,---,0.01,VWS V14.00,2013-05-03 13:32:00,
2013-05-03 14:38:00,53.4,50.2,29.96,WSW,240,4.0,7.0,89,0.01,,---,0.01,VWS V14.00,2013-05-03 13:38:00,
2013-05-03 14:43:00,54.0,50.5,29.96,WNW,300,10.0,20.0,88,0.01,,---,0.01,VWS V14.00,2013-05-03 13:43:00,
2013-05-03 14:48:00,54.4,50.3,29.96,WSW,257,10.0,15.0,86,0.01,,---,0.01,VWS V14.00,2013-05-03 13:48:00,
2013-05-03 14:53:00,55.1,50.4,29.95,West,278,13.0,17.0,84,0.01,,---,0.01,VWS V14.00,2013-05-03 13:53:00,
2013-05-03 14:58:00,55.9,49.8,29.95,West,259,16.0,21.0,80,0.01,,---,0.01,VWS V14.00,2013-05-03 13:58:00,
2013-05-03 15:03:00,55.6,48.9,29.95,West,261,12.0,20.0,78,0.01,,---,0.01,VWS V14.00,2013-05-03 14:03:00,
2013-05-03 15:09:00,55.6,49.2,29.95,West,267,13.0,27.0,79,0.01,,---,0.01,VWS V14.00,2013-05-03 14:09:00,
2013-05-03 15:14:00,55.7,49.3,29.95,West,270,17.0,20.0,79,0.01,,---,0.01,VWS V14.00,2013-05-03 14:14:00,
2013-05-03 15:19:00,55.8,49.4,29.94,WNW,288,9.0,13.0,79,0.00,,---,0.01,VWS V14.00,2013-05-03 14:19:00,
2013-05-03 15:25:00,55.9,49.2,29.95,SW,231,5.0,13.0,78,0.00,,---,0.01,VWS V14.00,2013-05-03 14:25:00,
2013-05-03 15:30:00,55.9,49.2,29.94,WSW,242,15.0,17.0,78,0.00,,---,0.01,VWS V14.00,2013-05-03 14:30:00,
2013-05-03 15:36:00,55.5,48.8,29.94,WSW,254,12.0,15.0,78,0.00,,---,0.01,VWS V14.00,2013-05-03 14:36:00,
2013-05-03 15:41:00,55.8,48.7,29.94,West,263,14.0,18.0,77,0.00,,---,0.01,VWS V14.00,2013-05-03 14:41:00,
2013-05-03 15:46:00,56.3,49.2,29.94,West,262,11.0,11.0,77,0.00,,---,0.01,VWS V14.00,2013-05-03 14:46:00,
2013-05-03 15:51:00,56.3,49.2,29.93,West,273,6.0,14.0,77,0.00,,---,0.01,VWS V14.00,2013-05-03 14:51:00,
2013-05-03 15:56:00,56.0,48.5,29.93,WSW,248,5.0,17.0,76,0.00,,---,0.01,VWS V14.00,2013-05-03 14:56:00,
2013-05-03 16:01:00,56.0,48.5,29.93,SSW,208,9.0,15.0,76,0.00,,---,0.01,VWS V14.00,2013-05-03 15:01:00,
2013-05-03 16:07:00,56.6,49.1,29.93,WSW,254,10.0,19.0,76,0.00,,---,0.01,VWS V14.00,2013-05-03 15:07:00,
2013-05-03 16:12:00,57.0,49.2,29.92,WSW,243,15.0,15.0,75,0.00,,---,0.01,VWS V14.00,2013-05-03 15:12:00,
2013-05-03 16:17:00,56.9,49.1,29.92,SSW,211,10.0,15.0,75,0.00,,---,0.01,VWS V14.00,2013-05-03 15:17:00,
2013-05-03 16:23:00,56.4,48.9,29.92,West,281,4.0,12.0,76,0.00,,---,0.01,VWS V14.00,2013-05-03 15:23:00,
2013-05-03 16:28:00,56.0,48.5,29.93,West,273,9.0,15.0,76,0.00,,---,0.01,VWS V14.00,2013-05-03 15:28:00,
2013-05-03 16:33:00,55.5,47.7,29.92,West,261,17.0,17.0,75,0.00,,---,0.01,VWS V14.00,2013-05-03 15:33:00,
2013-05-03 16:38:00,55.6,47.8,29.92,SW,226,14.0,15.0,75,0.00,,---,0.01,VWS V14.00,2013-05-03 15:38:00,
2013-05-03 16:44:00,55.4,47.6,29.92,West,259,19.0,19.0,75,0.00,,---,0.01,VWS V14.00,2013-05-03 15:44:00,
2013-05-03 16:50:00,55.2,47.4,29.92,West,279,12.0,18.0,75,0.00,,---,0.01,VWS V14.00,2013-05-03 15:50:00,
2013-05-03 16:55:00,55.0,47.2,29.92,West,262,6.0,11.0,75,0.00,,---,0.01,VWS V14.00,2013-05-03 15:55:00,
2013-05-03 17:01:00,54.9,47.5,29.91,SW,234,8.0,14.0,76,0.00,,---,0.01,VWS V14.00,2013-05-03 16:01:00,
2013-05-03 17:06:00,55.3,48.2,29.91,West,273,7.0,12.0,77,0.00,,---,0.01,VWS V14.00,2013-05-03 16:06:00,
2013-05-03 17:11:00,55.9,48.1,29.91,West,265,9.0,12.0,75,0.00,,---,0.01,VWS V14.00,2013-05-03 16:11:00,
2013-05-03 17:17:00,55.9,48.5,29.91,West,265,4.0,11.0,76,0.00,,---,0.01,VWS V14.00,2013-05-03 16:17:00,
2013-05-03 17:22:00,55.6,48.2,29.91,West,267,18.0,18.0,76,0.00,,---,0.01,VWS V14.00,2013-05-03 16:22:00,
2013-05-03 17:27:00,55.8,48.7,29.90,WSW,246,13.0,19.0,77,0.00,,---,0.01,VWS V14.00,2013-05-03 16:27:00,
2013-05-03 17:32:00,56.0,48.5,29.90,WSW,245,6.0,15.0,76,0.00,,---,0.01,VWS V14.00,2013-05-03 16:32:00,
2013-05-03 17:38:00,55.7,48.3,29.90,West,263,19.0,19.0,76,0.00,,---,0.01,VWS V14.00,2013-05-03 16:38:00,
2013-05-03 17:44:00,55.4,48.0,29.90,West,268,4.0,10.0,76,0.00,,---,0.01,VWS V14.00,2013-05-03 16:44:00,
2013-05-03 17:49:00,55.4,48.3,29.90,WSW,251,13.0,17.0,77,0.00,,---,0.01,VWS V14.00,2013-05-03 16:49:00,
2013-05-03 17:55:00,55.5,48.1,29.89,West,273,16.0,18.0,76,0.00,,---,0.01,VWS V14.00,2013-05-03 16:55:00,
2013-05-03 18:00:00,55.5,48.1,29.89,West,269,18.0,22.0,76,0.00,,---,0.01,VWS V14.00,2013-05-03 17:00:00,
2013-05-03 18:06:00,55.6,48.2,29.89,West,279,5.0,15.0,76,0.00,,---,0.01,VWS V14.00,2013-05-03 17:06:00,
2013-05-03 18:11:00,55.7,48.3,29.89,West,262,16.0,17.0,76,0.00,,---,0.01,VWS V14.00,2013-05-03 17:11:00,
2013-05-03 18:16:00,55.7,47.9,29.89,West,261,17.0,26.0,75,0.00,,---,0.01,VWS V14.00,2013-05-03 17:16:00,
2013-05-03 18:22:00,55.5,47.7,29.89,West,267,24.0,24.0,75,0.00,,---,0.01,VWS V14.00,2013-05-03 17:22:00,
2013-05-03 18:27:00,55.5,47.7,29.89,West,273,13.0,22.0,75,0.00,,---,0.01,VWS V14.00,2013-05-03 17:27:00,
2013-05-03 18:33:00,55.4,48.0,29.89,SSW,202,5.0,10.0,76,0.00,,---,0.01,VWS V14.00,2013-05-03 17:33:00,
2013-05-03 18:38:00,55.1,47.7,29.89,WNW,282,18.0,18.0,76,0.00,,---,0.01,VWS V14.00,2013-05-03 17:38:00,
2013-05-03 18:43:00,55.0,47.9,29.89,West,271,25.0,25.0,77,0.00,,---,0.01,VWS V14.00,2013-05-03 17:43:00,
2013-05-03 18:48:00,54.9,47.8,29.88,West,267,20.0,23.0,77,0.00,,---,0.01,VWS V14.00,2013-05-03 17:48:00,
2013-05-03 18:54:00,54.9,48.2,29.88,WSW,254,6.0,7.0,78,0.00,,---,0.01,VWS V14.00,2013-05-03 17:54:00,
2013-05-03 18:59:00,54.9,48.2,29.88,SSW,207,9.0,9.0,78,0.00,,---,0.01,VWS V14.00,2013-05-03 17:59:00,
2013-05-03 19:04:00,54.9,48.2,29.88,WSW,250,8.0,16.0,78,0.00,,---,0.01,VWS V14.00,2013-05-03 18:04:00,
2013-05-03 19:09:00,54.9,48.2,29.88,West,263,13.0,19.0,78,0.00,,---,0.01,VWS V14.00,2013-05-03 18:09:00,
2013-05-03 19:14:00,54.9,48.2,29.88,WSW,246,10.0,10.0,78,0.00,,---,0.01,VWS V14.00,2013-05-03 18:14:00,
2013-05-03 19:19:00,54.7,48.0,29.87,West,277,2.0,12.0,78,0.00,,---,0.01,VWS V14.00,2013-05-03 18:19:00,
2013-05-03 19:25:00,54.6,48.2,29.87,WSW,243,2.0,14.0,79,0.00,,---,0.01,VWS V14.00,2013-05-03 18:25:00,
2013-05-03 19:30:00,54.4,48.4,29.87,SW,236,4.0,9.0,80,0.00,,---,0.01,VWS V14.00,2013-05-03 18:30:00,
2013-05-03 19:35:00,54.1,48.4,29.87,WSW,254,7.0,10.0,81,0.00,,---,0.01,VWS V14.00,2013-05-03 18:35:00,
2013-05-03 19:41:00,54.0,48.3,29.87,WSW,248,4.0,5.0,81,0.00,,---,0.01,VWS V14.00,2013-05-03 18:41:00,
2013-05-03 19:46:00,53.9,48.2,29.87,West,261,9.0,13.0,81,0.00,,---,0.01,VWS V14.00,2013-05-03 18:46:00,
2013-05-03 19:52:00,54.0,48.3,29.87,WNW,287,9.0,12.0,81,0.00,,---,0.01,VWS V14.00,2013-05-03 18:52:00,
2013-05-03 19:57:00,54.1,48.1,29.87,West,281,16.0,25.0,80,0.00,,---,0.01,VWS V14.00,2013-05-03 18:57:00,
2013-05-03 20:02:00,54.5,48.1,29.87,West,271,15.0,22.0,79,0.00,,---,0.01,VWS V14.00,2013-05-03 19:02:00,
2013-05-03 20:08:00,54.6,48.2,29.87,WSW,252,11.0,15.0,79,0.00,,---,0.01,VWS V14.00,2013-05-03 19:08:00,
2013-05-03 20:13:00,54.6,48.2,29.87,West,279,12.0,15.0,79,0.00,,---,0.01,VWS V14.00,2013-05-03 19:13:00,
2013-05-03 20:19:00,54.5,48.1,29.87,WSW,250,11.0,11.0,79,0.00,,---,0.01,VWS V14.00,2013-05-03 19:19:00,
2013-05-03 20:24:00,54.6,48.2,29.87,West,263,10.0,13.0,79,0.00,,---,0.01,VWS V14.00,2013-05-03 19:24:00,
2013-05-03 20:29:00,54.5,48.1,29.87,SW,235,10.0,12.0,79,0.00,,---,0.01,VWS V14.00,2013-05-03 19:29:00,
2013-05-03 20:35:00,54.2,48.2,29.87,West,275,8.0,15.0,80,0.00,,---,0.01,VWS V14.00,2013-05-03 19:35:00,
2013-05-03 20:40:00,54.1,48.1,29.87,WSW,242,6.0,7.0,80,0.00,,---,0.01,VWS V14.00,2013-05-03 19:40:00,
2013-05-03 20:45:00,53.8,48.4,29.87,WSW,255,17.0,18.0,82,0.00,,---,0.01,VWS V14.00,2013-05-03 19:45:00,
2013-05-03 20:50:00,53.0,48.3,29.87,West,281,5.0,14.0,84,0.00,,---,0.01,VWS V14.00,2013-05-03 19:50:00,
2013-05-03 20:55:00,52.5,48.1,29.87,West,273,16.0,17.0,85,0.00,,---,0.01,VWS V14.00,2013-05-03 19:55:00,
2013-05-03 21:00:00,52.1,48.4,29.87,West,268,11.0,26.0,87,0.01,,---,0.02,VWS V14.00,2013-05-03 20:00:00,
2013-05-03 21:05:00,51.8,48.7,29.87,West,277,14.0,17.0,89,0.01,,---,0.02,VWS V14.00,2013-05-03 20:05:00,
2013-05-03 21:10:00,51.4,48.6,29.88,WSW,247,7.0,15.0,90,0.01,,---,0.02,VWS V14.00,2013-05-03 20:10:00,
2013-05-03 21:15:00,51.2,48.7,29.87,West,260,3.0,9.0,91,0.01,,---,0.02,VWS V14.00,2013-05-03 20:15:00,
2013-05-03 21:20:00,51.1,48.6,29.87,West,275,8.0,8.0,91,0.02,,---,0.02,VWS V14.00,2013-05-03 20:20:00,
2013-05-03 21:25:00,51.1,48.6,29.87,WSW,256,12.0,14.0,91,0.02,,---,0.02,VWS V14.00,2013-05-03 20:25:00,
2013-05-03 21:31:00,51.2,48.7,29.87,West,267,13.0,13.0,91,0.02,,---,0.02,VWS V14.00,2013-05-03 20:31:00,
2013-05-03 21:36:00,51.4,48.9,29.87,WSW,237,13.0,13.0,91,0.02,,---,0.02,VWS V14.00,2013-05-03 20:36:00,
2013-05-03 21:42:00,51.4,48.9,29.87,West,273,9.0,12.0,91,0.02,,---,0.02,VWS V14.00,2013-05-03 20:42:00,
2013-05-03 21:47:00,51.4,48.6,29.87,West,266,14.0,19.0,90,0.02,,---,0.02,VWS V14.00,2013-05-03 20:47:00,
2013-05-03 21:52:00,51.6,48.8,29.87,West,263,6.0,6.0,90,0.02,,---,0.02,VWS V14.00,2013-05-03 20:52:00,
2013-05-03 21:58:00,51.7,48.6,29.86,WSW,253,6.0,6.0,89,0.02,,---,0.02,VWS V14.00,2013-05-03 20:58:00,
2013-05-03 22:03:00,51.6,48.5,29.86,WSW,257,2.0,4.0,89,0.01,,---,0.02,VWS V14.00,2013-05-03 21:03:00,
2013-05-03 22:08:00,51.5,48.4,29.86,West,275,6.0,8.0,89,0.01,,---,0.02,VWS V14.00,2013-05-03 21:08:00,
2013-05-03 22:13:00,51.5,48.1,29.86,WSW,247,1.0,11.0,88,0.01,,---,0.02,VWS V14.00,2013-05-03 21:13:00,
2013-05-03 22:18:00,51.6,48.2,29.86,SW,236,3.0,7.0,88,0.00,,---,0.02,VWS V14.00,2013-05-03 21:18:00,
2013-05-03 22:23:00,51.6,48.2,29.86,West,277,0.0,0.0,88,0.00,,---,0.02,VWS V14.00,2013-05-03 21:23:00,
2013-05-03 22:29:00,51.6,48.2,29.86,West,261,6.0,6.0,88,0.00,,---,0.02,VWS V14.00,2013-05-03 21:29:00,
2013-05-03 22:34:00,51.5,48.1,29.85,West,261,4.0,11.0,88,0.00,,---,0.02,VWS V14.00,2013-05-03 21:34:00,
2013-05-03 22:40:00,51.6,48.2,29.85,SW,231,12.0,12.0,88,0.00,,---,0.02,VWS V14.00,2013-05-03 21:40:00,
2013-05-03 22:45:00,51.7,48.0,29.87,NW,306,25.0,26.0,87,0.00,,---,0.02,VWS V14.00,2013-05-03 21:45:00,
2013-05-03 22:51:00,50.0,47.2,29.87,WNW,285,18.0,22.0,90,0.01,,---,0.03,VWS V14.00,2013-05-03 21:51:00,
2013-05-03 22:57:00,49.2,47.0,29.87,West,277,17.0,19.0,92,0.02,,---,0.04,VWS V14.00,2013-05-03 21:57:00,
2013-05-03 23:02:00,48.9,47.0,29.87,WNW,299,21.0,21.0,93,0.02,,---,0.04,VWS V14.00,2013-05-03 22:02:00,
2013-05-03 23:07:00,48.6,47.0,29.87,West,281,12.0,13.0,94,0.02,,---,0.04,VWS V14.00,2013-05-03 22:07:00,
2013-05-03 23:12:00,48.4,46.8,29.87,WNW,298,10.0,14.0,94,0.02,,---,0.05,VWS V14.00,2013-05-03 22:12:00,
2013-05-03 23:17:00,48.2,46.8,29.87,West,272,14.0,19.0,95,0.03,,---,0.06,VWS V14.00,2013-05-03 22:17:00,
2013-05-03 23:23:00,48.0,46.6,29.86,West,267,19.0,19.0,95,0.03,,---,0.06,VWS V14.00,2013-05-03 22:23:00,
2013-05-03 23:28:00,48.0,46.9,29.86,WNW,286,13.0,13.0,96,0.03,,---,0.06,VWS V14.00,2013-05-03 22:28:00,
2013-05-03 23:33:00,48.0,46.9,29.86,WSW,243,10.0,13.0,96,0.03,,---,0.06,VWS V14.00,2013-05-03 22:33:00,
2013-05-03 23:38:00,48.0,46.9,29.86,WNW,284,12.0,17.0,96,0.03,,---,0.06,VWS V14.00,2013-05-03 22:38:00,
2013-05-03 23:44:00,48.0,46.9,29.86,WNW,286,5.0,12.0,96,0.03,,---,0.06,VWS V14.00,2013-05-03 22:44:00,
2013-05-03 23:50:00,48.0,46.9,29.85,West,268,12.0,12.0,96,0.02,,---,0.06,VWS V14.00,2013-05-03 22:50:00,
2013-05-03 23:56:00,48.1,47.0,29.85,WSW,252,10.0,13.0,96,0.02,,---,0.06,VWS V14.00,2013-05-03 22:56:00,